Location: Poughquag
(41.6090°N, 73.6820°W)
Time: 02:56:02
(UTC-04:00)

Transit 2A Rocket - Pass Details

Date: 01 June 2020
Orbit: 584 x 919 km, 66.7° (Epoch: 06 July)

Event Time Altitude Azimuth Distance (km) Brightness Sun altitude
Rises 09:32:04 0° 310° (NW) 3,548 8.1 44.0°
Reaches altitude 10° 09:35:55 10° 287° (WNW) 2,614 7.4 44.7°
Maximum altitude 09:38:50 14° 258° (WSW) 2,341 7.3 45.2°
Drops below altitude 10° 09:41:44 10° 229° (SW) 2,593 7.6 45.7°
Sets 09:45:33 0° 205° (SSW) 3,496 8.3 46.4°
